Ft Lauderdale, FL

1:35 AM EDT on September 22, 2017 (GMT -0400)
Fort Lauderdale-Hollywood International

Weather History for KFLL - May, 2013

Change the Weather History Date:

Sunday, May 5, 2013

  Actual Average Record
Temperature  
Mean Temperature 76 °F 79 °F  
Max Temperature 83 °F 85 °F 91 °F (2002)
Min Temperature 69 °F 72 °F 49 °F (1921)
Degree Days  
Heating Degree Days 0 0  
Month to date heating degree days 0 0  
Since 1 July heating degree days 85 112  
Cooling Degree Days 11 14  
Month to date cooling degree days 59 66  
Year to date cooling degree days 1029 1013  
Growing Degree Days 26 (Base 50)    
Moisture  
Dew Point 61 °F    
Average Humidity 66    
Maximum Humidity 90    
Minimum Humidity 42    
Precipitation  
Precipitation 0.00 in 0.09 in 2.04 in (1946)
Month to date precipitation 6.06 0.36  
Year to date precipitation 15.19 13.20  
Snow  
Snow 0.00 in - - ()
Month to date snowfall 0.0  
Since 1 July snowfall 0.0  
Snow Depth 0.00 in    
Sea Level Pressure  
Sea Level Pressure 29.86 in    
Wind  
Wind Speed 9 mph (NW)    
Max Wind Speed 16 mph    
Max Gust Speed 21 mph    
Visibility 10 miles    
Events      
T = Trace of Precipitation, MM = Missing Value Source: NWS Daily Summary

Daily Weather History Graph

Daily Weather History Graph

Search for Another Location

Airport or City:

Trip Planner

Search our weather history database for the weather conditions in past years. The results will help you decide how hot, cold, wet, or windy it might be!

Date:

Astronomy

May. 05, 2013 Rise Set
Actual Time 6:40 AM EDT 7:54 PM EDT
Civil Twilight 6:15 AM EDT 8:19 PM EDT
Nautical Twilight 5:46 AM EDT 8:48 PM EDT
Astronomical Twilight 5:16 AM EDT 9:18 PM EDT
Moon 3:45 AM EDT (5/5) 4:13 PM EDT (5/5)
Length of Visible Light 14h 03m
Length of Day
13h 14m
Waning Crescent, 18% of the Moon is Illuminated
May 5
Waning Crescent
May 9
New
May 18
First Quarter
May 25
Full
May 31
Last Quarter

Hourly Weather History & Observations

Time (EDT) Temp. Heat Index Dew Point Humidity Pressure Visibility Wind Dir Wind Speed Gust Speed Precip Events Conditions
12:53 AM 73.0 °F - 64.9 °F 76% 29.81 in 10.0 mi West 13.8 mph - N/A   Clear
1:53 AM 72.0 °F - 64.9 °F 78% 29.79 in 10.0 mi West 11.5 mph - N/A   Clear
2:53 AM 71.1 °F - 64.9 °F 81% 29.78 in 10.0 mi WNW 11.5 mph - N/A   Clear
3:53 AM 70.0 °F - 64.9 °F 84% 29.77 in 10.0 mi West 10.4 mph - N/A   Clear
4:53 AM 70.0 °F - 66.0 °F 87% 29.78 in 10.0 mi West 9.2 mph - N/A   Scattered Clouds
5:53 AM 71.1 °F - 66.9 °F 87% 29.80 in 10.0 mi WNW 9.2 mph 17.3 mph N/A   Overcast
6:53 AM 70.0 °F - 66.0 °F 87% 29.82 in 10.0 mi NW 11.5 mph - N/A   Mostly Cloudy
7:09 AM 69.8 °F - 66.2 °F 88% 29.83 in 10.0 mi WNW 10.4 mph - N/A   Mostly Cloudy
7:53 AM 70.0 °F - 66.0 °F 87% 29.85 in 10.0 mi WNW 8.1 mph - N/A   Mostly Cloudy
8:40 AM 73.4 °F - 64.4 °F 73% 29.86 in 10.0 mi WNW 12.7 mph - N/A   Mostly Cloudy
8:53 AM 72.0 °F - 64.9 °F 78% 29.87 in 10.0 mi NW 13.8 mph - N/A   Mostly Cloudy
9:53 AM 73.0 °F - 64.0 °F 73% 29.88 in 10.0 mi NW 10.4 mph - N/A   Mostly Cloudy
10:01 AM 73.4 °F - 64.4 °F 73% 29.88 in 10.0 mi NW 15.0 mph 19.6 mph N/A   Mostly Cloudy
10:28 AM 75.2 °F - 62.6 °F 65% 29.89 in 10.0 mi NNW 15.0 mph - N/A   Scattered Clouds
10:53 AM 77.0 °F - 62.1 °F 60% 29.89 in 10.0 mi NW 13.8 mph - N/A   Mostly Cloudy
11:53 AM 78.1 °F - 61.0 °F 56% 29.89 in 10.0 mi NNW 12.7 mph - N/A   Mostly Cloudy
12:53 PM 79.0 °F - 60.1 °F 52% 29.88 in 10.0 mi West 10.4 mph - N/A   Mostly Cloudy
1:53 PM 79.0 °F - 59.0 °F 50% 29.87 in 10.0 mi NW 3.5 mph - N/A   Scattered Clouds
2:53 PM 81.0 °F 81.6 °F 60.1 °F 49% 29.86 in 10.0 mi WNW 9.2 mph - N/A   Partly Cloudy
3:53 PM 81.0 °F 81.1 °F 57.9 °F 45% 29.85 in 10.0 mi WNW 10.4 mph - N/A   Partly Cloudy
4:53 PM 82.0 °F 82.1 °F 59.0 °F 45% 29.84 in 10.0 mi West 9.2 mph - N/A   Partly Cloudy
5:53 PM 81.0 °F 81.1 °F 57.9 °F 45% 29.85 in 10.0 mi NW 9.2 mph 16.1 mph N/A   Partly Cloudy
6:53 PM 80.1 °F 80.1 °F 55.0 °F 42% 29.86 in 10.0 mi NNW 9.2 mph - N/A   Partly Cloudy
7:53 PM 77.0 °F - 53.1 °F 43% 29.88 in 10.0 mi NNW 8.1 mph - N/A   Partly Cloudy
8:53 PM 75.0 °F - 53.1 °F 46% 29.91 in 10.0 mi NNW 5.8 mph - N/A   Clear
9:53 PM 73.0 °F - 53.1 °F 49% 29.92 in 10.0 mi NNW 4.6 mph - N/A   Clear
10:53 PM 72.0 °F - 54.0 °F 53% 29.93 in 10.0 mi North 5.8 mph - N/A   Clear
11:53 PM 72.0 °F - 54.0 °F 53% 29.94 in 10.0 mi Calm Calm - N/A   Clear